Joplin, MO

6:03 AM CDT on October 17, 2019 (GMT -0500)
Joplin Regional

Weather History for KJLN - August, 2019

Change the Weather History Date:

Friday, August 16, 2019

  Actual Average Record
Temperature  
Mean Temperature 73 °F 80 °F  
Max Temperature 78 °F 92 °F 105 °F (1956)
Min Temperature 68 °F 69 °F 49 °F (1992)
Degree Days  
Heating Degree Days 0 0  
Month to date heating degree days 0 0  
Since 1 June heating degree days 1 5  
Since 1 July heating degree days 0 0  
Cooling Degree Days 8 15  
Month to date cooling degree days 222 251  
Year to date cooling degree days 1073 1222  
Since 1 June cooling degree days 920 1042  
Growing Degree Days 24 (Base 50)    
Moisture  
Dew Point 68 °F    
Average Humidity 84    
Maximum Humidity 93    
Minimum Humidity 74    
Precipitation  
Precipitation 0.52 in 0.10 in 1.46 in (2017)
Month to date precipitation 2.76 1.62  
Year to date precipitation 45.67 29.24  
Sea Level Pressure  
Sea Level Pressure 29.93 in    
Wind  
Wind Speed 8 mph (ESE)    
Max Wind Speed 22 mph    
Max Gust Speed 32 mph    
Visibility 10 miles    
Events Rain , Thunderstorm    
T = Trace of Precipitation, MM = Missing Value Source: NWS Daily Summary

Daily Weather History Graph

Daily Weather History Graph

Search for Another Location

Airport or City:

Astronomy

Aug. 16, 2019 Rise Set
Actual Time 6:35 AM CDT 8:08 PM CDT
Civil Twilight 6:07 AM CDT 8:36 PM CDT
Nautical Twilight 5:34 AM CDT 9:09 PM CDT
Astronomical Twilight 4:59 AM CDT 9:44 PM CDT
Moon 9:09 PM CDT (8/16) 7:27 AM CDT (8/16)
Length of Visible Light 14h 28m
Length of Day
13h 33m
Full, 99% of the Moon is Illuminated
Aug 16
Full
Aug 23
Last Quarter
Aug 30
New
Sep 5
First Quarter
Sep 13
Full

Hourly Weather History & Observations

Time (CDT) Temp. Dew Point Humidity Pressure Visibility Wind Dir Wind Speed Gust Speed Precip Events Conditions
12:53 AM 78.1 °F 71.1 °F 79% 29.88 in 10.0 mi SSE 10.4 mph - N/A   Clear
1:53 AM 78.1 °F 70.0 °F 76% 29.90 in 10.0 mi South 9.2 mph - N/A   Clear
2:53 AM 73.9 °F 70.0 °F 87% 29.97 in 10.0 mi NNE 8.1 mph 21.9 mph 0.00 in Rain Light Rain
3:53 AM 70.0 °F 66.0 °F 87% 30.00 in 10.0 mi NNE 13.8 mph 19.6 mph 0.00 in   Scattered Clouds
4:53 AM 70.0 °F 63.0 °F 78% 29.95 in 10.0 mi East 6.9 mph 17.3 mph 0.02 in   Scattered Clouds
5:49 AM 69.8 °F 64.4 °F 83% 29.98 in 10.0 mi SE 9.2 mph - N/A Thunderstorm Partly Cloudy
5:53 AM 69.1 °F 64.0 °F 84% 29.94 in 10.0 mi ESE 9.2 mph - N/A Thunderstorm Thunderstorm
6:53 AM 69.1 °F 64.0 °F 84% 29.96 in 10.0 mi SSE 13.8 mph 19.6 mph N/A Thunderstorm Thunderstorm
7:53 AM 70.0 °F 64.9 °F 84% 29.97 in 10.0 mi SSE 5.8 mph - N/A Thunderstorm Thunderstorm
8:53 AM 70.0 °F 64.9 °F 84% 30.02 in 10.0 mi ENE 11.5 mph - 0.00 in Rain , Thunderstorm Light Thunderstorms and Rain
9:53 AM 69.1 °F 64.9 °F 87% 30.02 in 3.0 mi SE 10.4 mph 25.3 mph 0.16 in Rain , Thunderstorm Heavy Thunderstorms and Rain
10:53 AM 69.1 °F 66.0 °F 90% 30.03 in 7.0 mi ESE 9.2 mph - 0.14 in Rain , Thunderstorm Thunderstorms and Rain
11:53 AM 70.0 °F 66.0 °F 87% 29.99 in 10.0 mi SE 11.5 mph - 0.11 in   Overcast
12:53 PM 75.0 °F 66.9 °F 76% 29.97 in 10.0 mi ESE 10.4 mph - N/A   Overcast
1:31 PM 75.0 °F 66.9 °F 76% 30.01 in 10.0 mi ESE 9.2 mph 17.3 mph N/A Thunderstorm Thunderstorm
1:53 PM 75.0 °F 66.9 °F 76% 30.01 in 10.0 mi Variable 3.5 mph - N/A Thunderstorm Thunderstorm
2:53 PM 71.1 °F 68.0 °F 90% 30.01 in 10.0 mi North 9.2 mph - 0.04 in Rain , Thunderstorm Light Thunderstorms and Rain
3:29 PM 71.1 °F 68.0 °F 90% 29.91 in 10.0 mi ESE 12.7 mph 25.3 mph 0.05 in Rain Light Rain
3:53 PM 72.0 °F 69.1 °F 91% 29.89 in 10.0 mi SE 6.9 mph - 0.05 in   Clear
4:53 PM 73.9 °F 69.1 °F 85% 29.89 in 10.0 mi ESE 4.6 mph - N/A   Clear
5:53 PM 75.0 °F 69.1 °F 82% 29.86 in 10.0 mi South 4.6 mph 16.1 mph N/A   Clear
6:53 PM 73.9 °F 70.0 °F 87% 29.83 in 10.0 mi East 5.8 mph - N/A   Clear
7:53 PM 73.0 °F 71.1 °F 93% 29.82 in 10.0 mi SSW 4.6 mph - N/A   Clear
8:53 PM 71.1 °F 70.0 °F 96% 29.83 in 10.0 mi Calm Calm - N/A   Clear
9:53 PM 71.1 °F 70.0 °F 96% 29.84 in 10.0 mi East 4.6 mph - N/A   Clear
10:53 PM 71.1 °F 70.0 °F 96% 29.87 in 10.0 mi East 6.9 mph - N/A   Partly Cloudy
11:53 PM 71.1 °F 69.1 °F 93% 29.87 in 10.0 mi ESE 5.8 mph - N/A   Clear